QPF
0.00 0.00 0.00 0.00 0.00 0.00 0.00 0.00 0.00 0.00 0.00 0.00 0.00 0.00 0.00 0.00 0.00 0.00 0.00 0.00 0.00 0.00 0.00 0.00 0.00 0.00 0.01 0.01 0.01 0.02 0.02 0.02 0.02 0.02 0.02 0.03 0.03 0.03
0.00 0.00 0.00 0.00 0.00 0.00 0.00 0.00 0.00 0.00 0.00 0.00 0.00 0.00 0.00 0.00 0.00 0.00 0.00 0.00 0.00 0.00 0.00 0.00 0.00 0.01 0.01 0.01 0.01 0.02 0.02 0.02 0.03 0.03 0.03 0.04 0.04 0.04
0.00 0.00 0.00 0.00 0.00 0.00 0.00 0.00 0.00 0.00 0.00 0.00 0.00 0.00 0.00 0.00 0.00 0.00 0.00 0.00 0.00 0.00 0.00 0.00 0.00 0.01 0.01 0.01 0.01 0.02 0.02 0.02 0.03 0.03 0.04 0.04 0.04 0.04
0.00 0.00 0.00 0.00 0.00 0.00 0.00 0.00 0.00 0.00 0.00 0.00 0.00 0.00 0.00 0.00 0.00 0.00 0.00 0.00 0.00 0.00 0.00 0.00 0.01 0.01 0.01 0.01 0.02 0.02 0.02 0.02 0.02 0.03 0.03 0.03 0.04 0.04
0.00 0.00 0.00 0.00 0.00 0.00 0.00 0.00 0.00 0.00 0.00 0.00 0.00 0.00 0.00 0.00 0.00 0.00 0.00 0.00 0.00 0.00 0.00 0.00 0.00 0.00 0.01 0.01 0.01 0.02 0.02 0.02 0.02 0.02 0.02 0.03 0.03 0.04
0.00 0.00 0.00 0.00 0.00 0.00 0.00 0.00 0.00 0.00 0.00 0.00 0.00 0.00 0.00 0.00 0.00 0.00 0.00 0.00 0.00 0.00 0.00 0.00 0.00 0.00 0.01 0.01 0.01 0.01 0.01 0.01 0.02 0.02 0.03 0.03 0.03 0.03
0.00 0.00 0.00 0.00 0.00 0.00 0.00 0.00 0.00 0.00 0.00 0.00 0.00 0.00 0.00 0.00 0.00 0.00 0.00 0.00 0.00 0.00 0.00 0.00 0.00 0.00 0.00 0.00 0.00 0.00 0.01 0.01 0.02 0.03 0.03 0.03 0.03 0.04
0.00 0.00 0.00 0.00 0.00 0.00 0.00 0.00 0.00 0.01 0.01 0.01 0.01 0.00 0.00 0.00 0.00 0.01 0.01 0.02 0.01 0.00 0.00 0.00 0.00 0.00 0.00 0.00 0.00 0.00 0.01 0.02 0.03 0.04 0.04 0.04 0.04 0.04
0.00 0.00 0.00 0.00 0.00 0.00 0.00 0.00 0.00 0.00 0.01 0.01 0.01 0.00 0.00 0.01 0.01 0.02 0.02 0.02 0.02 0.01 0.02 0.02 0.00 0.00 0.00 0.00 0.00 0.01 0.02 0.03 0.03 0.04 0.04 0.04 0.04 0.04
0.00 0.00 0.00 0.00 0.00 0.00 0.00 0.00 0.00 0.00 0.00 0.00 0.01 0.01 0.01 0.02 0.03 0.03 0.03 0.04 0.03 0.02 0.02 0.02 0.01 0.00 0.00 0.00 0.00 0.01 0.01 0.02 0.02 0.03 0.03 0.04 0.04 0.04
0.00 0.00 0.00 0.00 0.00 0.01 0.01 0.01 0.00 0.00 0.00 0.01 0.01 0.02 0.02 0.03 0.03 0.04 0.04 0.05 0.04 0.02 0.01 0.02 0.01 0.01 0.00 0.00 0.00 0.00 0.00 0.01 0.01 0.01 0.02 0.03 0.03 0.03
0.00 0.00 0.00 0.00 0.00 0.01 0.01 0.01 0.01 0.01 0.01 0.01 0.01 0.01 0.01 0.01 0.01 0.02 0.03 0.04 0.04 0.03 0.01 0.02 0.02 0.01 0.02 0.00 0.00 0.00 0.00 0.00 0.00 0.01 0.01 0.01 0.02 0.02
0.00 0.00 0.00 0.00 0.01 0.01 0.01 0.01 0.01 0.02 0.01 0.01 0.01 0.01 0.00 0.00 0.00 0.00 0.01 0.03 0.04 0.04 0.02 0.03 0.03 0.02 0.03 0.01 0.00 0.00 0.00 0.00 0.00 0.00 0.00 0.01 0.02 0.02
0.00 0.00 0.00 0.01 0.01 0.01 0.01 0.01 0.02 0.02 0.01 0.01 0.01 0.01 0.00 0.00 0.00 0.00 0.00 0.01 0.01 0.02 0.01 0.02 0.04 0.03 0.04 0.02 0.01 0.00 0.00 0.00 0.00 0.00 0.00 0.00 0.01 0.01
0.00 0.00 0.01 0.01 0.01 0.00 0.00 0.01 0.01 0.01 0.01 0.01 0.01 0.01 0.01 0.01 0.01 0.01 0.01 0.01 0.01 0.01 0.00 0.01 0.02 0.02 0.03 0.04 0.02 0.00 0.00 0.00 0.00 0.00 0.00 0.00 0.00 0.01
0.00 0.00 0.01 0.00 0.00 0.00 0.00 0.00 0.00 0.00 0.01 0.01 0.01 0.00 0.01 0.01 0.01 0.02 0.02 0.01 0.01 0.01 0.01 0.00 0.01 0.02 0.03 0.02 0.02 0.01 0.01 0.01 0.00 0.00 0.00 0.00 0.00 0.01
0.01 0.01 0.00 0.00 0.00 0.00 0.00 0.00 0.00 0.00 0.01 0.01 0.01 0.01 0.01 0.02 0.02 0.01 0.01 0.01 0.01 0.01 0.01 0.01 0.01 0.01 0.01 0.02 0.02 0.01 0.01 0.01 0.01 0.01 0.01 0.01 0.00 0.01
0.01 0.00 0.00 0.00 0.00 0.00 0.00 0.00 0.01 0.01 0.01 0.01 0.01 0.02 0.02 0.02 0.01 0.01 0.01 0.02 0.01 0.01 0.01 0.01 0.01 0.01 0.01 0.01 0.01 0.01 0.01 0.01 0.01 0.01 0.01 0.01 0.01 0.01
0.00 0.00 0.00 0.00 0.00 0.00 0.01 0.01 0.01 0.01 0.01 0.01 0.01 0.01 0.01 0.01 0.01 0.01 0.01 0.02 0.01 0.01 0.01 0.01 0.01 0.02 0.02 0.01 0.00 0.00 0.01 0.01 0.01 0.01 0.01 0.01 0.01 0.01
0.00 0.00 0.00 0.00 0.00 0.00 0.00 0.00 0.01 0.01 0.01 0.01 0.01 0.01 0.01 0.01 0.01 0.01 0.01 0.01 0.01 0.01 0.00 0.00 0.01 0.02 0.03 0.02 0.01 0.00 0.00 0.01 0.01 0.01 0.01 0.01 0.01 0.00
0.00 0.00 0.00 0.00 0.00 0.00 0.00 0.01 0.01 0.01 0.01 0.01 0.01 0.01 0.01 0.01 0.01 0.01 0.01 0.01 0.01 0.01 0.01 0.01 0.01 0.01 0.01 0.02 0.01 0.00 0.00 0.00 0.01 0.01 0.02 0.01 0.01 0.00
0.00 0.00 0.00 0.00 0.00 0.00 0.00 0.00 0.00 0.00 0.00 0.00 0.01 0.01 0.01 0.01 0.01 0.01 0.01 0.01 0.01 0.01 0.01 0.01 0.01 0.01 0.01 0.01 0.01 0.00 0.00 0.00 0.00 0.00 0.01 0.02 0.02 0.02
0.00 0.00 0.00 0.00 0.00 0.00 0.00 0.00 0.00 0.01 0.00 0.01 0.01 0.01 0.01 0.01 0.01 0.01 0.01 0.01 0.01 0.01 0.01 0.01 0.01 0.01 0.01 0.01 0.01 0.00 0.00 0.00 0.00 0.00 0.00 0.01 0.01 0.01
MSLP
1023.44 1023.71 1023.99 1024.24 1024.43 1024.52 1024.49 1024.33 1024.05 1023.67 1023.22 1022.74 1022.27 1021.82 1021.43 1021.09 1020.79 1020.53 1020.28 1020.02 1019.74 1019.43 1019.07 1018.67 1018.24 1017.77 1017.30 1016.82 1016.35 1015.91 1015.49 1015.10 1014.74 1014.38 1014.02 1013.64 1013.22 1012.76
1023.10 1023.34 1023.58 1023.81 1023.99 1024.08 1024.08 1023.96 1023.72 1023.39 1022.99 1022.54 1022.08 1021.63 1021.21 1020.83 1020.49 1020.18 1019.89 1019.60 1019.30 1018.96 1018.59 1018.18 1017.73 1017.25 1016.75 1016.25 1015.76 1015.30 1014.87 1014.48 1014.12 1013.78 1013.44 1013.08 1012.68 1012.23
1022.66 1022.84 1023.04 1023.23 1023.38 1023.47 1023.47 1023.39 1023.21 1022.93 1022.58 1022.18 1021.74 1021.31 1020.88 1020.48 1020.10 1019.75 1019.43 1019.11 1018.78 1018.43 1018.05 1017.63 1017.17 1016.67 1016.16 1015.64 1015.13 1014.65 1014.21 1013.81 1013.45 1013.12 1012.80 1012.45 1012.05 1011.60
1022.13 1022.27 1022.41 1022.54 1022.65 1022.72 1022.72 1022.66 1022.51 1022.28 1021.98 1021.63 1021.24 1020.82 1020.40 1019.99 1019.61 1019.24 1018.89 1018.55 1018.21 1017.85 1017.46 1017.04 1016.58 1016.08 1015.56 1015.02 1014.50 1014.01 1013.55 1013.15 1012.78 1012.45 1012.12 1011.76 1011.36 1010.90
1021.56 1021.64 1021.71 1021.79 1021.85 1021.88 1021.86 1021.80 1021.67 1021.47 1021.22 1020.91 1020.55 1020.17 1019.77 1019.38 1018.99 1018.62 1018.26 1017.92 1017.58 1017.22 1016.85 1016.43 1015.98 1015.49 1014.97 1014.44 1013.91 1013.41 1012.94 1012.52 1012.14 1011.78 1011.43 1011.05 1010.63 1010.14
1020.95 1020.98 1021.00 1021.01 1021.01 1020.99 1020.94 1020.86 1020.72 1020.54 1020.31 1020.04 1019.72 1019.37 1019.00 1018.62 1018.25 1017.90 1017.56 1017.23 1016.90 1016.57 1016.21 1015.82 1015.39 1014.92 1014.42 1013.89 1013.36 1012.85 1012.37 1011.93 1011.52 1011.13 1010.74 1010.33 1009.87 1009.35
1020.34 1020.33 1020.29 1020.24 1020.18 1020.10 1020.00 1019.88 1019.73 1019.55 1019.32 1019.07 1018.77 1018.45 1018.12 1017.77 1017.43 1017.10 1016.78 1016.48 1016.18 1015.87 1015.55 1015.19 1014.79 1014.35 1013.87 1013.37 1012.85 1012.33 1011.84 1011.37 1010.92 1010.49 1010.06 1009.60 1009.10 1008.55
1019.72 1019.67 1019.59 1019.48 1019.36 1019.23 1019.08 1018.91 1018.73 1018.53 1018.30 1018.05 1017.78 1017.49 1017.18 1016.86 1016.55 1016.25 1015.97 1015.69 1015.43 1015.16 1014.87 1014.55 1014.19 1013.78 1013.33 1012.85 1012.34 1011.83 1011.32 1010.83 1010.35 1009.87 1009.39 1008.88 1008.34 1007.74
1019.08 1018.99 1018.87 1018.73 1018.56 1018.37 1018.18 1017.97 1017.76 1017.54 1017.31 1017.06 1016.80 1016.52 1016.24 1015.95 1015.67 1015.40 1015.14 1014.90 1014.66 1014.43 1014.17 1013.89 1013.57 1013.20 1012.79 1012.33 1011.84 1011.34 1010.82 1010.31 1009.80 1009.28 1008.75 1008.20 1007.60 1006.96
1018.39 1018.28 1018.14 1017.96 1017.76 1017.54 1017.31 1017.08 1016.85 1016.62 1016.38 1016.13 1015.88 1015.62 1015.36 1015.09 1014.83 1014.58 1014.35 1014.13 1013.92 1013.71 1013.48 1013.23 1012.95 1012.62 1012.24 1011.82 1011.35 1010.86 1010.35 1009.83 1009.29 1008.74 1008.17 1007.57 1006.93 1006.26
1017.66 1017.53 1017.37 1017.18 1016.97 1016.74 1016.50 1016.26 1016.02 1015.79 1015.55 1015.31 1015.07 1014.82 1014.57 1014.32 1014.07 1013.83 1013.61 1013.40 1013.21 1013.02 1012.82 1012.60 1012.35 1012.06 1011.72 1011.33 1010.90 1010.43 1009.93 1009.40 1008.85 1008.27 1007.67 1007.04 1006.37 1005.67
1016.89 1016.76 1016.60 1016.41 1016.20 1015.98 1015.75 1015.52 1015.29 1015.07 1014.84 1014.62 1014.38 1014.14 1013.90 1013.65 1013.40 1013.17 1012.95 1012.75 1012.56 1012.39 1012.21 1012.02 1011.81 1011.55 1011.26 1010.91 1010.51 1010.06 1009.58 1009.06 1008.50 1007.92 1007.30 1006.64 1005.95 1005.23
1016.12 1015.99 1015.84 1015.67 1015.49 1015.29 1015.08 1014.87 1014.67 1014.46 1014.25 1014.04 1013.81 1013.57 1013.33 1013.08 1012.83 1012.59 1012.37 1012.16 1011.98 1011.82 1011.67 1011.51 1011.33 1011.12 1010.86 1010.56 1010.19 1009.78 1009.32 1008.81 1008.26 1007.67 1007.05 1006.38 1005.68 1004.96
1015.40 1015.29 1015.15 1015.01 1014.85 1014.68 1014.50 1014.33 1014.14 1013.96 1013.77 1013.56 1013.34 1013.10 1012.84 1012.58 1012.32 1012.07 1011.85 1011.65 1011.47 1011.33 1011.20 1011.07 1010.93 1010.76 1010.55 1010.28 1009.96 1009.58 1009.14 1008.65 1008.11 1007.53 1006.91 1006.25 1005.56 1004.84
1014.78 1014.67 1014.56 1014.44 1014.31 1014.17 1014.03 1013.87 1013.71 1013.54 1013.36 1013.15 1012.93 1012.68 1012.41 1012.14 1011.87 1011.61 1011.38 1011.18 1011.02 1010.89 1010.79 1010.70 1010.60 1010.47 1010.30 1010.08 1009.79 1009.43 1009.02 1008.54 1008.02 1007.44 1006.83 1006.19 1005.52 1004.83
1014.26 1014.18 1014.09 1013.99 1013.88 1013.76 1013.63 1013.50 1013.35 1013.18 1012.99 1012.78 1012.55 1012.29 1012.01 1011.72 1011.43 1011.17 1010.94 1010.75 1010.61 1010.50 1010.43 1010.38 1010.31 1010.22 1010.09 1009.90 1009.63 1009.30 1008.90 1008.43 1007.91 1007.35 1006.76 1006.14 1005.50 1004.85
1013.86 1013.79 1013.71 1013.62 1013.53 1013.42 1013.29 1013.16 1013.01 1012.84 1012.64 1012.42 1012.17 1011.89 1011.60 1011.30 1011.01 1010.75 1010.52 1010.35 1010.23 1010.15 1010.11 1010.08 1010.06 1010.00 1009.89 1009.72 1009.47 1009.14 1008.74 1008.27 1007.76 1007.20 1006.62 1006.02 1005.41 1004.81
1013.53 1013.47 1013.39 1013.30 1013.20 1013.08 1012.96 1012.81 1012.65 1012.47 1012.26 1012.03 1011.76 1011.48 1011.18 1010.88 1010.60 1010.34 1010.13 1009.98 1009.88 1009.83 1009.81 1009.82 1009.81 1009.77 1009.68 1009.51 1009.26 1008.92 1008.51 1008.04 1007.51 1006.95 1006.37 1005.79 1005.21 1004.65
1013.21 1013.14 1013.06 1012.96 1012.84 1012.72 1012.58 1012.42 1012.25 1012.06 1011.84 1011.60 1011.34 1011.05 1010.76 1010.47 1010.20 1009.96 1009.77 1009.64 1009.57 1009.54 1009.55 1009.57 1009.57 1009.54 1009.45 1009.28 1009.01 1008.66 1008.23 1007.73 1007.19 1006.61 1006.03 1005.45 1004.90 1004.37
1012.84 1012.76 1012.66 1012.54 1012.41 1012.27 1012.12 1011.95 1011.78 1011.58 1011.37 1011.14 1010.89 1010.62 1010.35 1010.08 1009.84 1009.63 1009.47 1009.36 1009.30 1009.30 1009.32 1009.35 1009.36 1009.33 1009.23 1009.04 1008.76 1008.39 1007.93 1007.41 1006.84 1006.24 1005.64 1005.06 1004.50 1003.98
1012.37 1012.27 1012.16 1012.02 1011.88 1011.73 1011.57 1011.41 1011.24 1011.06 1010.87 1010.66 1010.44 1010.20 1009.97 1009.74 1009.53 1009.35 1009.22 1009.14 1009.10 1009.11 1009.14 1009.18 1009.19 1009.15 1009.05 1008.85 1008.55 1008.16 1007.69 1007.14 1006.54 1005.92 1005.29 1004.68 1004.10 1003.57
1011.80 1011.69 1011.55 1011.41 1011.26 1011.10 1010.95 1010.80 1010.65 1010.50 1010.34 1010.17 1009.99 1009.81 1009.62 1009.44 1009.27 1009.13 1009.03 1008.98 1008.96 1008.98 1009.02 1009.06 1009.07 1009.04 1008.93 1008.73 1008.43 1008.04 1007.55 1006.99 1006.38 1005.73 1005.07 1004.43 1003.82 1003.24
1011.15 1011.02 1010.88 1010.73 1010.58 1010.43 1010.29 1010.16 1010.04 1009.93 1009.81 1009.69 1009.57 1009.44 1009.30 1009.17 1009.05 1008.96 1008.89 1008.86 1008.86 1008.90 1008.94 1008.99 1009.01 1008.99 1008.89 1008.71 1008.43 1008.06 1007.58 1007.03 1006.41 1005.75 1005.06 1004.38 1003.72 1003.09
Thickness
5522 5516 5510 5505 5499 5494 5487 5481 5473 5472 5475 5474 5471 5469 5465 5461 5457 5454 5452 5448 5447 5445 5443 5442 5441 5440 5439 5438 5437 5437 5437 5437 5437 5438 5439 5441 5443 5446
5514 5508 5502 5497 5491 5485 5479 5473 5466 5461 5461 5463 5459 5456 5452 5448 5444 5441 5438 5435 5432 5429 5428 5426 5424 5423 5421 5420 5419 5418 5418 5418 5418 5419 5420 5421 5424 5426
5506 5500 5495 5489 5482 5476 5470 5464 5458 5451 5450 5455 5449 5445 5439 5435 5431 5427 5423 5419 5416 5412 5410 5408 5406 5404 5402 5401 5399 5398 5397 5396 5396 5397 5397 5399 5400 5403
5498 5492 5486 5480 5474 5468 5461 5455 5449 5443 5439 5440 5439 5432 5426 5421 5417 5412 5408 5404 5400 5396 5393 5390 5388 5385 5383 5380 5378 5377 5375 5374 5373 5373 5373 5374 5376 5377
5491 5484 5478 5471 5465 5459 5453 5447 5441 5436 5429 5425 5425 5419 5413 5407 5402 5398 5393 5388 5384 5379 5376 5372 5369 5366 5362 5360 5358 5356 5354 5352 5351 5350 5350 5350 5351 5353
5482 5476 5470 5463 5457 5451 5444 5438 5431 5425 5418 5413 5410 5406 5399 5393 5385 5381 5378 5373 5368 5363 5358 5354 5350 5347 5343 5339 5337 5335 5333 5331 5330 5330 5329 5330 5331 5333
5472 5466 5460 5454 5448 5442 5436 5429 5421 5413 5406 5400 5396 5392 5385 5376 5370 5365 5362 5359 5355 5347 5343 5338 5332 5327 5322 5318 5316 5314 5313 5312 5312 5312 5313 5313 5315 5317
5463 5456 5450 5444 5438 5433 5426 5420 5412 5402 5394 5388 5383 5376 5371 5363 5357 5351 5346 5342 5340 5334 5325 5322 5314 5310 5305 5301 5298 5297 5297 5296 5297 5297 5297 5299 5300 5303
5453 5446 5440 5434 5428 5421 5414 5408 5399 5391 5384 5376 5369 5363 5357 5351 5343 5338 5331 5325 5322 5317 5309 5308 5301 5296 5292 5288 5285 5283 5283 5283 5283 5283 5285 5286 5288 5290
5443 5436 5429 5422 5415 5408 5402 5394 5386 5378 5370 5363 5356 5350 5343 5336 5329 5323 5318 5313 5309 5301 5293 5292 5289 5284 5281 5276 5273 5272 5272 5271 5272 5272 5274 5276 5278 5280
5432 5425 5417 5410 5404 5398 5390 5382 5374 5367 5358 5351 5345 5338 5331 5324 5316 5309 5302 5296 5295 5290 5282 5277 5276 5273 5271 5267 5264 5262 5262 5262 5263 5264 5266 5268 5270 5273
5422 5414 5406 5399 5393 5385 5376 5368 5361 5355 5347 5339 5332 5324 5317 5309 5302 5295 5287 5282 5279 5277 5272 5265 5263 5258 5260 5260 5255 5253 5253 5254 5256 5257 5259 5262 5264 5267
5411 5403 5395 5388 5381 5373 5365 5356 5349 5342 5334 5326 5318 5311 5304 5297 5290 5284 5277 5270 5266 5263 5259 5254 5252 5248 5245 5249 5249 5248 5247 5248 5249 5251 5254 5256 5260 5263
5401 5392 5384 5377 5369 5361 5352 5344 5336 5328 5319 5311 5304 5298 5291 5286 5281 5275 5270 5264 5259 5254 5251 5246 5244 5241 5239 5239 5242 5243 5243 5244 5245 5247 5249 5252 5256 5259
5390 5383 5374 5366 5357 5347 5338 5331 5322 5312 5305 5298 5293 5287 5281 5277 5272 5267 5262 5257 5252 5248 5245 5241 5238 5236 5234 5233 5236 5237 5239 5242 5243 5244 5246 5249 5252 5256
5377 5369 5361 5352 5343 5334 5325 5315 5306 5299 5293 5287 5282 5277 5272 5267 5262 5257 5252 5248 5243 5241 5239 5237 5235 5232 5231 5231 5231 5234 5234 5236 5239 5242 5244 5248 5252 5255
5366 5356 5346 5336 5327 5319 5311 5302 5295 5289 5283 5277 5272 5267 5262 5258 5253 5248 5243 5239 5235 5233 5231 5231 5231 5230 5230 5229 5230 5232 5232 5234 5237 5239 5242 5247 5251 5255
5353 5342 5333 5324 5315 5308 5299 5292 5285 5278 5273 5267 5262 5257 5253 5249 5245 5240 5237 5233 5230 5228 5226 5225 5224 5225 5225 5228 5229 5229 5230 5232 5235 5238 5240 5244 5250 5255
5339 5329 5320 5312 5303 5295 5288 5281 5275 5269 5263 5258 5254 5249 5245 5241 5237 5234 5231 5228 5225 5223 5222 5221 5220 5219 5219 5221 5225 5229 5229 5230 5233 5236 5240 5243 5248 5254
5324 5315 5307 5300 5292 5284 5278 5271 5266 5260 5255 5250 5245 5241 5237 5234 5231 5228 5225 5223 5221 5220 5218 5218 5217 5217 5217 5219 5221 5225 5229 5230 5232 5235 5240 5244 5249 5255
5312 5304 5296 5289 5282 5275 5269 5263 5258 5253 5248 5243 5239 5235 5231 5227 5224 5222 5220 5220 5218 5216 5214 5215 5216 5218 5217 5217 5217 5221 5226 5231 5233 5236 5240 5244 5248 5254
5301 5293 5286 5280 5273 5267 5261 5256 5251 5246 5242 5237 5233 5229 5225 5221 5219 5217 5215 5214 5213 5212 5212 5212 5214 5214 5214 5215 5216 5218 5223 5229 5234 5238 5242 5245 5246 5251
5290 5284 5277 5271 5266 5260 5255 5250 5245 5241 5237 5232 5228 5224 5221 5217 5215 5213 5212 5211 5210 5210 5209 5209 5210 5211 5211 5213 5214 5216 5220 5225 5231 5236 5241 5247 5251 5255